﻿測定場所 (Monitoring sites),日付 (Measurement date),時間 (Measurement time),線量率 最大値 (max) μGy/h,線量率 最小値 (min) μGy/h,線量率 平均値 (average) μGy/h,
江戸川 (Edogawa),2012-06-10,23:01～24:00,0.124,0.111,0.118,
江戸川 (Edogawa),2012-06-10,22:01～23:00,0.123,0.112,0.118,
江戸川 (Edogawa),2012-06-10,21:01～22:00,0.125,0.113,0.118,
江戸川 (Edogawa),2012-06-10,20:01～21:00,0.124,0.111,0.118,
江戸川 (Edogawa),2012-06-10,19:01～20:00,0.124,0.108,0.118,
江戸川 (Edogawa),2012-06-10,18:01～19:00,0.125,0.112,0.118,
江戸川 (Edogawa),2012-06-10,17:01～18:00,0.126,0.112,0.119,
江戸川 (Edogawa),2012-06-10,16:01～17:00,0.124,0.112,0.118,
江戸川 (Edogawa),2012-06-10,15:01～16:00,0.127,0.111,0.118,
江戸川 (Edogawa),2012-06-10,14:01～15:00,0.125,0.112,0.116,
江戸川 (Edogawa),2012-06-10,13:01～14:00,0.127,0.111,0.118,
江戸川 (Edogawa),2012-06-10,12:01～13:00,0.125,0.112,0.118,
江戸川 (Edogawa),2012-06-10,11:01～12:00,0.125,0.108,0.118,
江戸川 (Edogawa),2012-06-10,10:01～11:00,0.123,0.111,0.117,
江戸川 (Edogawa),2012-06-10,09:01～10:00,0.122,0.109,0.117,
江戸川 (Edogawa),2012-06-10,08:01～09:00,0.122,0.109,0.116,
江戸川 (Edogawa),2012-06-10,07:01～08:00,0.123,0.109,0.116,
江戸川 (Edogawa),2012-06-10,06:01～07:00,0.123,0.111,0.117,
江戸川 (Edogawa),2012-06-10,05:01～06:00,0.126,0.109,0.117,
江戸川 (Edogawa),2012-06-10,04:01～05:00,0.124,0.108,0.116,
江戸川 (Edogawa),2012-06-10,03:01～04:00,0.126,0.110,0.117,
江戸川 (Edogawa),2012-06-10,02:01～03:00,0.121,0.110,0.116,
江戸川 (Edogawa),2012-06-10,01:01～02:00,0.124,0.105,0.116,
江戸川 (Edogawa),2012-06-10,00:01～01:00,0.127,0.112,0.117,
江戸川 (Edogawa),2012-06-09,23:01～24:00,0.128,0.112,0.117,
江戸川 (Edogawa),2012-06-09,22:01～23:00,0.125,0.111,0.117,
江戸川 (Edogawa),2012-06-09,21:01～22:00,0.123,0.108,0.117,
江戸川 (Edogawa),2012-06-09,20:01～21:00,0.123,0.110,0.117,
江戸川 (Edogawa),2012-06-09,19:01～20:00,0.124,0.110,0.117,
江戸川 (Edogawa),2012-06-09,18:01～19:00,0.123,0.108,0.117,
江戸川 (Edogawa),2012-06-09,17:01～18:00,0.125,0.112,0.117,
江戸川 (Edogawa),2012-06-09,16:01～17:00,0.123,0.111,0.117,
江戸川 (Edogawa),2012-06-09,15:01～16:00,0.121,0.109,0.116,
江戸川 (Edogawa),2012-06-09,14:01～15:00,0.124,0.112,0.117,
江戸川 (Edogawa),2012-06-09,13:01～14:00,0.125,0.110,0.117,
江戸川 (Edogawa),2012-06-09,12:01～13:00,0.125,0.111,0.119,
江戸川 (Edogawa),2012-06-09,11:01～12:00,0.128,0.116,0.121,
江戸川 (Edogawa),2012-06-09,10:01～11:00,0.130,0.116,0.122,
江戸川 (Edogawa),2012-06-09,09:01～10:00,0.125,0.112,0.120,
江戸川 (Edogawa),2012-06-09,08:01～09:00,0.128,0.113,0.120,
江戸川 (Edogawa),2012-06-09,07:01～08:00,0.125,0.113,0.120,
江戸川 (Edogawa),2012-06-09,06:01～07:00,0.128,0.115,0.122,
江戸川 (Edogawa),2012-06-09,05:01～06:00,0.132,0.120,0.126,
江戸川 (Edogawa),2012-06-09,04:01～05:00,0.133,0.120,0.125,
江戸川 (Edogawa),2012-06-09,03:01～04:00,0.132,0.117,0.125,
江戸川 (Edogawa),2012-06-09,02:01～03:00,0.137,0.118,0.128,
江戸川 (Edogawa),2012-06-09,01:01～02:00,0.136,0.120,0.127,
江戸川 (Edogawa),2012-06-09,00:01～01:00,0.134,0.118,0.126,
江戸川 (Edogawa),2012-06-08,23:01～24:00,0.132,0.118,0.125,
江戸川 (Edogawa),2012-06-08,22:01～23:00,0.128,0.113,0.121,
江戸川 (Edogawa),2012-06-08,21:01～22:00,0.126,0.115,0.121,
江戸川 (Edogawa),2012-06-08,20:01～21:00,0.128,0.115,0.121,
江戸川 (Edogawa),2012-06-08,19:01～20:00,0.128,0.114,0.120,
江戸川 (Edogawa),2012-06-08,18:01～19:00,0.127,0.114,0.121,
江戸川 (Edogawa),2012-06-08,17:01～18:00,0.127,0.114,0.121,
江戸川 (Edogawa),2012-06-08,16:01～17:00,0.128,0.115,0.121,
江戸川 (Edogawa),2012-06-08,15:01～16:00,0.128,0.115,0.121,
江戸川 (Edogawa),2012-06-08,14:01～15:00,0.130,0.114,0.121,
江戸川 (Edogawa),2012-06-08,13:01～14:00,0.128,0.111,0.122,
江戸川 (Edogawa),2012-06-08,12:01～13:00,0.130,0.114,0.121,
江戸川 (Edogawa),2012-06-08,11:01～12:00,0.128,0.114,0.120,
江戸川 (Edogawa),2012-06-08,10:01～11:00,0.127,0.114,0.121,
江戸川 (Edogawa),2012-06-08,09:01～10:00,0.126,0.115,0.121,
江戸川 (Edogawa),2012-06-08,08:01～09:00,0.128,0.113,0.121,
江戸川 (Edogawa),2012-06-08,07:01～08:00,0.126,0.114,0.120,
江戸川 (Edogawa),2012-06-08,06:01～07:00,0.126,0.115,0.120,
江戸川 (Edogawa),2012-06-08,05:01～06:00,0.127,0.112,0.120,
江戸川 (Edogawa),2012-06-08,04:01～05:00,0.127,0.113,0.120,
江戸川 (Edogawa),2012-06-08,03:01～04:00,0.127,0.110,0.120,
江戸川 (Edogawa),2012-06-08,02:01～03:00,0.126,0.112,0.120,
江戸川 (Edogawa),2012-06-08,01:01～02:00,0.124,0.114,0.120,
江戸川 (Edogawa),2012-06-08,00:01～01:00,0.126,0.112,0.120,
江戸川 (Edogawa),2012-06-07,23:01～24:00,0.128,0.114,0.120,
江戸川 (Edogawa),2012-06-07,22:01～23:00,0.126,0.114,0.120,
江戸川 (Edogawa),2012-06-07,21:01～22:00,0.128,0.112,0.120,
江戸川 (Edogawa),2012-06-07,20:01～21:00,0.128,0.113,0.120,
江戸川 (Edogawa),2012-06-07,19:01～20:00,0.127,0.114,0.121,
江戸川 (Edogawa),2012-06-07,18:01～19:00,0.126,0.111,0.119,
江戸川 (Edogawa),2012-06-07,17:01～18:00,0.125,0.111,0.119,
江戸川 (Edogawa),2012-06-07,16:01～17:00,0.126,0.111,0.119,
江戸川 (Edogawa),2012-06-07,15:01～16:00,0.127,0.112,0.120,
江戸川 (Edogawa),2012-06-07,14:01～15:00,0.125,0.114,0.120,
江戸川 (Edogawa),2012-06-07,13:01～14:00,0.126,0.114,0.120,
江戸川 (Edogawa),2012-06-07,12:01～13:00,0.126,0.109,0.119,
江戸川 (Edogawa),2012-06-07,11:01～12:00,0.126,0.109,0.118,
江戸川 (Edogawa),2012-06-07,10:01～11:00,0.125,0.112,0.119,
江戸川 (Edogawa),2012-06-07,09:01～10:00,0.125,0.113,0.119,
江戸川 (Edogawa),2012-06-07,08:01～09:00,0.127,0.113,0.119,
江戸川 (Edogawa),2012-06-07,07:01～08:00,0.125,0.112,0.118,
江戸川 (Edogawa),2012-06-07,06:01～07:00,0.124,0.113,0.118,
江戸川 (Edogawa),2012-06-07,05:01～06:00,0.123,0.112,0.118,
江戸川 (Edogawa),2012-06-07,04:01～05:00,0.125,0.110,0.118,
江戸川 (Edogawa),2012-06-07,03:01～04:00,0.127,0.108,0.118,
江戸川 (Edogawa),2012-06-07,02:01～03:00,0.125,0.108,0.118,
江戸川 (Edogawa),2012-06-07,01:01～02:00,0.125,0.112,0.118,
江戸川 (Edogawa),2012-06-07,00:01～01:00,0.125,0.113,0.118,
江戸川 (Edogawa),2012-06-06,23:01～24:00,0.124,0.112,0.118,
江戸川 (Edogawa),2012-06-06,22:01～23:00,0.125,0.110,0.118,
江戸川 (Edogawa),2012-06-06,21:01～22:00,0.124,0.111,0.118,
江戸川 (Edogawa),2012-06-06,20:01～21:00,0.127,0.110,0.118,
江戸川 (Edogawa),2012-06-06,19:01～20:00,0.123,0.111,0.118,
江戸川 (Edogawa),2012-06-06,18:01～19:00,0.123,0.112,0.118,
江戸川 (Edogawa),2012-06-06,17:01～18:00,0.125,0.111,0.118,
江戸川 (Edogawa),2012-06-06,16:01～17:00,0.124,0.112,0.118,
江戸川 (Edogawa),2012-06-06,15:01～16:00,0.124,0.112,0.119,
江戸川 (Edogawa),2012-06-06,14:01～15:00,0.128,0.112,0.119,
江戸川 (Edogawa),2012-06-06,13:01～14:00,0.126,0.109,0.118,
江戸川 (Edogawa),2012-06-06,12:01～13:00,0.125,0.113,0.119,
江戸川 (Edogawa),2012-06-06,11:01～12:00,0.126,0.110,0.119,
江戸川 (Edogawa),2012-06-06,10:01～11:00,0.127,0.111,0.118,
江戸川 (Edogawa),2012-06-06,09:01～10:00,0.125,0.112,0.119,
江戸川 (Edogawa),2012-06-06,08:01～09:00,0.125,0.110,0.119,
江戸川 (Edogawa),2012-06-06,07:01～08:00,0.126,0.112,0.119,
江戸川 (Edogawa),2012-06-06,06:01～07:00,0.126,0.112,0.119,
江戸川 (Edogawa),2012-06-06,05:01～06:00,0.124,0.113,0.119,
江戸川 (Edogawa),2012-06-06,04:01～05:00,0.126,0.112,0.118,
江戸川 (Edogawa),2012-06-06,03:01～04:00,0.127,0.115,0.121,
江戸川 (Edogawa),2012-06-06,02:01～03:00,0.128,0.112,0.120,
江戸川 (Edogawa),2012-06-06,01:01～02:00,0.129,0.116,0.121,
江戸川 (Edogawa),2012-06-06,00:01～01:00,0.130,0.115,0.122,
江戸川 (Edogawa),2012-06-05,23:01～24:00,0.129,0.115,0.122,
江戸川 (Edogawa),2012-06-05,22:01～23:00,0.127,0.116,0.121,
江戸川 (Edogawa),2012-06-05,21:01～22:00,0.130,0.116,0.121,
江戸川 (Edogawa),2012-06-05,20:01～21:00,0.129,0.115,0.122,
江戸川 (Edogawa),2012-06-05,19:01～20:00,0.126,0.112,0.120,
江戸川 (Edogawa),2012-06-05,18:01～19:00,0.129,0.114,0.121,
江戸川 (Edogawa),2012-06-05,17:01～18:00,0.128,0.115,0.120,
江戸川 (Edogawa),2012-06-05,16:01～17:00,0.127,0.113,0.121,
江戸川 (Edogawa),2012-06-05,15:01～16:00,0.128,0.116,0.122,
江戸川 (Edogawa),2012-06-05,14:01～15:00,0.126,0.115,0.121,
江戸川 (Edogawa),2012-06-05,13:01～14:00,0.125,0.114,0.121,
江戸川 (Edogawa),2012-06-05,12:01～13:00,0.129,0.116,0.122,
江戸川 (Edogawa),2012-06-05,11:01～12:00,0.128,0.115,0.121,
江戸川 (Edogawa),2012-06-05,10:01～11:00,0.130,0.113,0.121,
江戸川 (Edogawa),2012-06-05,09:01～10:00,0.126,0.115,0.121,
江戸川 (Edogawa),2012-06-05,08:01～09:00,0.127,0.113,0.121,
江戸川 (Edogawa),2012-06-05,07:01～08:00,0.130,0.114,0.121,
江戸川 (Edogawa),2012-06-05,06:01～07:00,0.127,0.112,0.121,
江戸川 (Edogawa),2012-06-05,05:01～06:00,0.130,0.115,0.122,
江戸川 (Edogawa),2012-06-05,04:01～05:00,0.128,0.112,0.120,
江戸川 (Edogawa),2012-06-05,03:01～04:00,0.129,0.115,0.121,
江戸川 (Edogawa),2012-06-05,02:01～03:00,0.129,0.113,0.121,
江戸川 (Edogawa),2012-06-05,01:01～02:00,0.129,0.115,0.121,
江戸川 (Edogawa),2012-06-05,00:01～01:00,0.130,0.112,0.121,
江戸川 (Edogawa),2012-06-04,23:01～24:00,0.128,0.113,0.121,
江戸川 (Edogawa),2012-06-04,22:01～23:00,0.128,0.114,0.121,
江戸川 (Edogawa),2012-06-04,21:01～22:00,0.127,0.115,0.121,
江戸川 (Edogawa),2012-06-04,20:01～21:00,0.127,0.114,0.121,
江戸川 (Edogawa),2012-06-04,19:01～20:00,0.129,0.111,0.121,
江戸川 (Edogawa),2012-06-04,18:01～19:00,0.128,0.112,0.121,
江戸川 (Edogawa),2012-06-04,17:01～18:00,0.127,0.114,0.121,
江戸川 (Edogawa),2012-06-04,16:01～17:00,0.132,0.115,0.122,
江戸川 (Edogawa),2012-06-04,15:01～16:00,0.126,0.115,0.121,
江戸川 (Edogawa),2012-06-04,14:01～15:00,0.127,0.114,0.121,
江戸川 (Edogawa),2012-06-04,13:01～14:00,0.128,0.116,0.122,
江戸川 (Edogawa),2012-06-04,12:01～13:00,0.127,0.114,0.120,
江戸川 (Edogawa),2012-06-04,11:01～12:00,0.128,0.113,0.120,
江戸川 (Edogawa),2012-06-04,10:01～11:00,0.131,0.115,0.121,
江戸川 (Edogawa),2012-06-04,09:01～10:00,0.132,0.113,0.120,
江戸川 (Edogawa),2012-06-04,08:01～09:00,0.127,0.115,0.120,
江戸川 (Edogawa),2012-06-04,07:01～08:00,0.129,0.116,0.121,
江戸川 (Edogawa),2012-06-04,06:01～07:00,0.126,0.112,0.120,
江戸川 (Edogawa),2012-06-04,05:01～06:00,0.128,0.114,0.120,
江戸川 (Edogawa),2012-06-04,04:01～05:00,0.125,0.112,0.119,
江戸川 (Edogawa),2012-06-04,03:01～04:00,0.127,0.110,0.119,
江戸川 (Edogawa),2012-06-04,02:01～03:00,0.128,0.114,0.120,
江戸川 (Edogawa),2012-06-04,01:01～02:00,0.125,0.111,0.118,
江戸川 (Edogawa),2012-06-04,00:01～01:00,0.127,0.111,0.120,
